Home   Weather   1°21'N, 103°52'E   Past weeks
Flag for Singapore

Past Weather in 1°21'N, 103°52'E, Singapore — Yesterday and Last 2 Weeks

Now
90 °F

Partly sunny.


Feels Like: 98 °F
Forecast: 89 / 77 °F
Wind: 9 mph from Southwest

Location: Singapore / Paya Lebar

Current Time: Sep 15, 2019 at 3:53:45 pm

Latest Report: Sep 15, 2019 at 3:00 pm


Visibility: 5 mi

Pressure: 29.77 "Hg

Humidity: 59%

Dew Point: 73 °F

Location of 1°21'N, 103°52'ELocation

Past Weather in 1°21'N, 103°52'E — Graph

°F

1°21'N, 103°52'E Temperature Yesterday

Maximum temperature yesterday: 88 °F (at 1:00 pm)
Minimum temperature yesterday: 82 °F (at 3:00 am)
Average temperature yesterday: 84 °F

High & Low Weather Summary for the Past Weeks

 TemperatureHumidityPressure
High93 °F (Sep 6, 3:00 pm)89% (Sep 7, 4:00 am)29.95 "Hg (Sep 7, 4:00 am)
Low81 °F (Sep 4, 9:00 am)49% (Sep 8, 4:00 pm)29.71 "Hg (Aug 31, 5:00 pm)
Average86 °F73%29.83 "Hg
* Reported Aug 31 2:00 pm — Sep 15 2:00 pm, 1°21'N, 103°52'E. Weather by CustomWeather, © 2019

Note: Actual official high and low records may vary slightly from our data, if they occured in-between our weather recording intervals... More about our weather records

Advertising

1°21'N, 103°52'E Weather History for the Previous 24 Hours

Scroll right to see more
 ConditionsComfort  
Time TempWeatherWind HumidityBarometerVisibility
2:00 pm
Sun, Sep 15
90 °FScattered clouds.9 mph59%29.80 "Hg5 mi
1:00 pm88 °FScattered clouds.8 mph62%29.83 "Hg5 mi
12:00 pm88 °FScattered clouds.9 mph62%29.86 "Hg5 mi
11:00 am86 °FScattered clouds.12 mph62%29.86 "Hg5 mi
10:00 am84 °FScattered clouds.9 mph70%29.89 "Hg5 mi
9:00 am84 °FPartly sunny.6 mph79%29.86 "Hg5 mi
8:00 am82 °FPartly sunny.3 mph84%29.86 "Hg5 mi
7:00 am81 °FPartly sunny.3 mph84%29.83 "Hg4 mi
6:00 am82 °FPassing clouds.3 mph79%29.83 "Hg5 mi
5:00 am82 °FPassing clouds.5 mph79%29.80 "Hg4 mi
4:00 am82 °FPassing clouds.3 mph79%29.80 "Hg4 mi
3:00 am82 °FPartly cloudy.5 mph79%29.80 "Hg4 mi
2:00 am82 °FPassing clouds.3 mph79%29.83 "Hg4 mi
1:00 am82 °FPassing clouds.2 mph79%29.86 "Hg3 mi
12:00 am82 °FPassing clouds.2 mph79%29.86 "Hg3 mi
11:00 pm
Sat, Sep 14
84 °FPassing clouds.6 mph74%29.86 "Hg3 mi
10:00 pm84 °FPassing clouds.6 mph74%29.86 "Hg3 mi
9:00 pm84 °FPassing clouds.7 mph74%29.86 "Hg3 mi
8:00 pm84 °FPassing clouds.7 mph79%29.83 "Hg2 mi
7:00 pm84 °FPartly sunny.9 mph79%29.80 "Hg1 mi
6:00 pm86 °FPartly sunny.10 mph70%29.80 "Hg2 mi
5:00 pm86 °FPartly sunny.12 mph70%29.80 "Hg2 mi
4:00 pm88 °FPartly sunny.13 mph70%29.80 "Hg2 mi
3:00 pm86 °FPartly sunny.12 mph75%29.83 "Hg2 mi
Weather by CustomWeather, © 2019

See weather overview